Pegasus
1 42784U 17036V 19339.17975046 .00000810 00000-0 37563-4 0 9993
2 42784 97.3307 33.1530 0011852 2.8671 357.2632 15.22807661136053
NUDATSat
1 42787U 17036Y 19338.93206430 .00001625 00000-0 70038-4 0 9992
2 42787 097.3344 033.8929 0012353 359.4631 000.6590 15.23926554135910
SUCHAI 1
1 42788U 17036Z 19339.13799694 .00000994 00000-0 44811-4 0 9993
2 42788 97.3313 33.5337 0011380 2.1287 357.9996 15.23280237136140
SKCUBE
1 42789U 17036AA 19338.90324677 .00000942 00000-0 42751-4 0 9997
2 42789 097.3308 033.2106 0011277 003.3166 356.8144 15.23155419136023
VZLUSAT 1
1 42790U 17036AB 19338.91959642 .00001189 00000-0 52073-4 0 9998
2 42790 097.3328 033.8773 0010759 002.0305 358.0974 15.23911961136069
VENTA 1
1 42791U 17036AC 19338.87636052 .00000900 00000-0 40990-4 0 9996
2 42791 097.3306 033.2340 0010967 004.1114 356.0211 15.23158629136013
Robusta 1B
1 42792U 17036AD 19339.40609689 .00000918 00000-0 41539-4 0 9992
2 42792 97.3310 33.8947 0010831 2.4354 357.6934 15.23334931136128
D-SAT
1 42794U 17036AF 19339.38118074 .00000312 00000-0 32688-4 0 9997
2 42794 97.5193 16.4267 0124977 296.2430 62.5988 14.91180182133622
TechnoSat
1 42829U 17042E 19339.80474292 -.00000005 00000-0 48546-5 0 9998
2 42829 97.5429 225.3976 0013365 208.3275 151.7219 14.91030923130284
QIKCOM-1
1 42983U 98067NF 19339.27738824 .00002466 00000-0 36205-4 0 9990
2 42983 51.6386 208.2016 0004305 51.6574 308.4806 15.59996274119801
AO-91
1 43017U 17073E 19339.31877638 .00000651 00000-0 56589-4 0 9990
2 43017 97.7246 254.0471 0257005 326.3094 32.2004 14.78729591110322
EcAMSat
1 43019U 98067NG 19339.84154224 .00004700 00000-0 55995-4 0 9990
2 43019 51.6395 197.0294 0004255 40.4074 319.7236 15.63265447202328
PICSAT
1 43132U 18004X 19339.46149886 .00000978 00000-0 43380-4 0 9993
2 43132 97.4713 46.8091 0010231 28.0324 332.1463 15.23942147105354
AO-92
1 43137U 18004AC 19339.46907054 .00000734 00000-0 33489-4 0 9996
2 43137 97.4702 46.7416 0009894 30.1802 330.0003 15.23751984105348
TianYi 2
1 43155U 18008A 19339.78487882 .00000456 00000-0 30713-4 0 9995
2 43155 97.4709 48.6163 0019348 98.3101 22.7374 15.11362281103516
Zhou Enlai
1 43156U 18008B 19339.75400546 .00000792 00000-0 51257-4 0 9994
2 43156 97.4751 48.4563 0016303 96.6006 20.6510 15.10879822103476
TianYi 6
1 43158U 18008D 19339.84436457 .00000275 00000-0 20478-4 0 9993
2 43158 97.4705 47.8395 0015450 94.6859 12.3920 15.10442071103441
S-Net G
1 43186U 18014G 19338.97231408 .00000405 00000-0 40512-4 0 9999
2 43186 97.7022 244.8663 0011657 151.1147 209.0722 14.96721918100454
S-Net H
1 43187U 18014H 19339.44010973 .00000331 00000-0 34016-4 0 9995
2 43187 97.7020 245.3109 0011674 149.5161 210.6742 14.96722293100525
S-Net J
1 43188U 18014J 19338.97196376 .00000422 00000-0 42008-4 0 9996
2 43188 97.7022 244.8723 0011660 151.1871 208.9997 14.96721559100454
S-Net K
1 43189U 18014K 19339.37344671 .00000318 00000-0 32882-4 0 9998
2 43189 97.7020 245.2418 0011656 149.6785 210.5113 14.96721533 99065
FMN 1
1 43192U 18015A 19339.74615119 .00001618 00000-0 67811-4 0 9996
2 43192 97.4200 105.6301 0017335 58.5305 51.1382 15.24854182102221
Shaonian Xing
1 43199U 18015H 19339.77200860 .00001210 00000-0 50876-4 0 9990
2 43199 97.3987 104.4108 0018442 68.1046 37.8786 15.25216777102288
1KUNS-PF
1 43466U 98067NP 19339.86397231 .00026709 00000-0 18594-3 0 9991
2 43466 51.6326 186.4757 0002071 153.0275 207.0832 15.74168751 89643
UBAKUSAT
1 43467U 98067NQ 19339.81893108 .00010696 00000-0 10299-3 0 9993
2 43467 51.6346 196.7256 0001076 50.8480 309.2611 15.67149149 89518
Irazu
1 43468U 98067NR 19339.29524447 .00055002 00000-0 26249-3 0 9995
2 43468 51.6339 180.3304 0003036 184.1801 175.9176 15.82260475189664
EnduroSat One
1 43551U 98067NZ 19339.33046787 .00015191 00000-0 13651-3 0 9997
2 43551 51.6345 200.9612 0005350 87.9519 272.2090 15.68469312 79649
EQUISat
1 43552U 98067PA 19339.17510621 .00012470 00000-0 12459-3 0 9995
2 43552 51.6366 205.2305 0005840 79.4413 280.7240 15.66026057 79535
UiTMSat 1
1 43589U 98067PD 19339.33187182 .00012969 00000-0 12564-3 0 9995
2 43589 51.6337 204.6746 0005422 91.0330 269.1287 15.66761502 75291
Maya 1
1 43590U 98067PE 19339.83551201 .00013806 00000-0 13325-3 0 9996
2 43590 51.6337 202.0450 0005522 92.6569 267.5059 15.66787141 75307
Bhutan 1
1 43591U 98067PF 19339.05425455 .00015030 00000-0 14431-3 0 9992
2 43591 51.6343 205.8676 0005632 90.0356 270.1285 15.66831878 75188
SiriusSat 1
1 43595U 98067PG 19339.20680466 .00011668 00000-0 11869-3 0 9993
2 43595 51.6339 207.6010 0002933 63.5989 296.5307 15.65658418 74358
SiriusSat 2
1 43596U 98067PH 19339.19110653 .00013809 00000-0 14032-3 0 9992
2 43596 51.6349 208.3009 0003330 59.5764 300.5560 15.65497178 74344
Tanusha-3
1 43597U 98067PJ 19339.33740784 .00017808 00000-0 15756-3 0 9990
2 43597 51.6327 203.1741 0003209 88.5113 271.6251 15.68716142 74424
SurfSat
1 43614U 18070B 19339.23787015 .00001899 00000-0 50381-4 0 9990
2 43614 93.0386 73.7814 0016343 21.2635 338.9295 15.38284887 68462
CP-7 DAVE
1 43615U 18070C 19339.51402065 .00001896 00000-0 50483-4 0 9991
2 43615 93.0389 73.8940 0016432 19.6526 340.5358 15.38181352 68503
ELFIN-B
1 43616U 18070D 19339.43832085 .00002593 00000-0 66865-4 0 9998
2 43616 93.0347 73.7697 0017084 22.6603 337.5401 15.39119200 68510
ELFIN-A
1 43617U 18070E 19339.42500714 .00002872 00000-0 73797-4 0 9991
2 43617 93.0403 74.1131 0016190 19.8258 340.3622 15.39227495 68516
STARS-Me Mother
1 43640U 98067PQ 19339.08824968 .00007753 00000-0 95419-4 0 9991
2 43640 51.6358 215.8650 0004637 27.4530 332.6707 15.61309288 66165
CubeBel 1
1 43666U 18083E 19339.85963052 .00000943 00000-0 49830-4 0 9992
2 43666 97.5077 3.0892 0014062 322.8272 161.9554 15.17872929 61091
Changshagaoxin
1 43669U 18083H 19339.77924314 .00000758 00000-0 41728-4 0 9996
2 43669 97.4944 1.7964 0009732 316.5822 43.4644 15.17004654 61018
Ten-Koh
1 43677U 18084G 19339.43660001 .00000026 00000-0 85308-5 0 9990
2 43677 97.8670 92.2254 0017496 83.0103 277.3104 14.90223422 59896
PO-101
1 43678U 18084H 19339.79976241 -.00000314 00000-0 -25566-4 0 9997
2 43678 97.8672 93.4812 0011294 99.3891 260.8620 14.91586796 60008
IRVINE 01
1 43693U 18088D 19339.34619259 .00001790 00000-0 76392-4 0 9992
2 43693 85.0371 206.0471 0016276 292.8223 67.1299 15.22028690 59161
QO-100
1 43700U 18090A 19339.27757889 .00000153 00000-0 00000 0 0 9998
2 43700 0.0174 314.1211 0001423 318.2057 287.2264 1.00269410 3992
Reaktor Hello World
1 43743U 18096AA 19339.84719931 .00000929 00000-0 37722-4 0 9997
2 43743 97.4430 49.5300 0019778 95.1851 11.8373 15.26963309 56695
MinXSS-2
1 43758U 18099A 19339.43884791 -.00000007 00000-0 46153-5 0 9995
2 43758 97.7299 49.3450 0016978 118.6970 241.5959 14.95526136 54804
AO-95
1 43770U 18099N 19339.46173739 .00000153 00000-0 19316-4 0 9996
2 43770 97.7294 49.0155 0015859 125.3034 234.9672 14.94863965 54783
RANGE-B
1 43772U 18099Q 19339.43692545 .00000163 00000-0 20161-4 0 9997
2 43772 97.7357 49.2939 0015595 113.4407 246.8455 14.95011049 54775
RANGE-A
1 43773U 18099R 19339.45167577 -.00000206 00000-0 -13597-4 0 9997
2 43773 97.7241 48.7873 0014908 113.3266 246.9525 14.94874832 54773
MOVE-II
1 43780U 18099Y 19339.46004091 .00000252 00000-0 28086-4 0 9995
2 43780 97.7288 49.1139 0014853 123.6021 236.6619 14.95210713 54777
SNUSat 2
1 43782U 18099AA 19339.45849582 .00000017 00000-0 67358-5 0 9993
2 43782 97.7291 49.1535 0014104 113.1395 247.1314 14.95140170 54789
